EW1617 Weather Reports


Display with metric or nautical units.
time (UTC)temp
F
wind
direction
speed
MPH
gust
MPH
rain 1hr
in
rain 24hr
in
rain mn
in
humidity
%
barometer
mb
20260901022007 81 135 5.0 6.0 0.00 0.00 0.00 45 1006.4
20260901021507 81 153 5.0 9.0 0.00 0.00 0.00 44 1006.4
20260901021007 81 171 8.0 9.0 0.00 0.00 0.00 44 1006.4
20260901020507 82 236 3.0 7.0 0.00 0.00 0.00 45 1006.4
20260901020007 82 264 3.0 7.0 0.00 0.00 0.00 45 1006.2
20260901015507 82 144 5.0 7.0 0.00 0.00 0.00 44 1006.1
20260901015007 83 208 7.0 7.0 0.00 0.00 0.00 43 1006.1
20260901014507 83 144 7.0 9.0 0.00 0.00 0.00 43 1006.1
20260901014007 83 135 6.0 9.0 0.00 0.00 0.00 43 1006.1
20260901013507 83 162 5.0 7.0 0.00 0.00 0.00 43 1006.1
20260901013007 83 126 5.0 7.0 0.00 0.00 0.00 43 1006.1
20260901012507 84 135 3.0 6.0 0.00 0.00 0.00 43 1006.1
20260901012007 84 135 4.0 7.0 0.00 0.00 0.00 42 1006.1
20260901011507 84 144 5.0 7.0 0.00 0.00 0.00 41 1006.1
20260901011007 85 171 6.0 7.0 0.00 0.00 0.00 40 1006.1
20260901010507 85 158 5.0 6.0 0.00 0.00 0.00 39 1006.1
20260901010007 85 117 6.0 7.0 0.00 0.00 0.00 39 1006.1
20260901005507 85 144 3.0 7.0 0.00 0.00 0.00 39 1006.1
20260901005008 86 144 4.0 6.0 0.00 0.00 0.00 39 1006.1
20260901004507 86 171 3.0 5.0 0.00 0.00 0.00 39 1006.1
20260901004007 86 135 6.0 8.0 0.00 0.00 0.00 38 1006.2
20260901003507 87 153 5.0 7.0 0.00 0.00 0.00 38 1006.3
20260901003007 87 99 4.0 6.0 0.00 0.00 0.00 38 1006.4
20260901002507 87 234 3.0 5.0 0.00 0.00 0.00 38 1006.4
20260901002007 87 135 2.0 4.0 0.00 0.00 0.00 37 1006.4
20260901001507 87 144 7.0 8.0 0.00 0.00 0.00 36 1006.4
20260901001007 88 153 5.0 7.0 0.00 0.00 0.00 35 1006.4
20260901000507 87 235 2.0 5.0 0.00 0.00 0.00 37 1006.4
20260901000007 87 117 4.0 5.0 0.00 0.00 0.00 35 1006.4
20260831235507 88 144 4.0 8.0 0.00 0.00 0.00 35 1006.4
20260831235007 88 198 3.0 5.0 0.00 0.00 0.00 35 1006.4
20260831234507 89 27 2.0 6.0 0.00 0.00 0.00 34 1006.4
20260831234007 90 171 3.0 6.0 0.00 0.00 0.00 34 1006.4
20260831233507 91 153 3.0 8.0 0.00 0.00 0.00 34 1006.4
20260831233007 91 144 4.0 6.0 0.00 0.00 0.00 33 1006.4
20260831232507 91 153 6.0 7.0 0.00 0.00 0.00 33 1006.4
20260831232006 91 135 5.0 7.0 0.00 0.00 0.00 34 1006.4
20260831231507 91 216 3.0 6.0 0.00 0.00 0.00 35 1006.4
20260831231007 91 108 5.0 6.0 0.00 0.00 0.00 35 1006.4
20260831230507 91 144 3.0 6.0 0.00 0.00 0.00 36 1006.7
20260831230007 90 135 6.0 8.0 0.00 0.00 0.00 36 1006.8
20260831225507 90 153 6.0 7.0 0.00 0.00 0.00 36 1006.8
20260831225007 90 117 5.0 6.0 0.00 0.00 0.00 36 1006.8
20260831224507 91 144 7.0 9.0 0.00 0.00 0.00 36 1006.8
20260831224007 91 90 4.0 8.0 0.00 0.00 0.00 36 1006.8
20260831223507 91 153 3.0 6.0 0.00 0.00 0.00 36 1006.8
20260831223007 91 90 5.0 6.0 0.00 0.00 0.00 36 1006.8
20260831222507 91 243 3.0 7.0 0.00 0.00 0.00 37 1007.1
20260831222007 91 259 4.0 7.0 0.00 0.00 0.00 36 1007.1
20260831221507 91 234 2.0 5.0 0.00 0.00 0.00 37 1007.1
20260831221007 91 271 3.0 5.0 0.00 0.00 0.00 36 1007.1
20260831220507 91 198 5.0 7.0 0.00 0.00 0.00 37 1007.1
20260831220008 90 234 1.0 4.0 0.00 0.00 0.00 38 1007.3
20260831215507 90 279 3.0 7.0 0.00 0.00 0.00 38 1007.5
20260831215008 89 99 3.0 5.0 0.00 0.00 0.00 38 1007.5
20260831214507 89 234 2.0 6.0 0.00 0.00 0.00 39 1007.5
20260831214007 89 262 4.0 6.0 0.00 0.00 0.00 39 1007.5
20260831213507 88 189 3.0 6.0 0.00 0.00 0.00 40 1007.7
20260831213007 88 297 2.0 4.0 0.00 0.00 0.00 40 1007.8
20260831212507 87 234 5.0 7.0 0.00 0.00 0.00 41 1007.8
20260831212007 87 190 5.0 8.0 0.00 0.00 0.00 41 1007.8
20260831211507 87 180 5.0 6.0 0.00 0.00 0.00 40 1007.8
20260831211007 86 216 4.0 5.0 0.00 0.00 0.00 43 1008.1
20260831210507 85 126 3.0 5.0 0.00 0.00 0.00 44 1008.1
20260831210006 85 63 3.0 6.0 0.00 0.00 0.00 44 1008.1
20260831205507 85 36 5.0 6.0 0.00 0.00 0.00 43 1008.1
20260831205007 85 171 5.0 7.0 0.00 0.00 0.00 42 1008.1
20260831204507 85 180 5.0 6.0 0.00 0.00 0.00 43 1008.1
20260831204006 84 162 4.0 5.0 0.00 0.00 0.00 44 1008.3
20260831203507 84 135 4.0 6.0 0.00 0.00 0.00 44 1008.5
20260831203008 84 108 5.0 5.0 0.00 0.00 0.00 44 1008.5
20260831202507 83 180 4.0 6.0 0.00 0.00 0.00 45 1008.5
20260831202007 83 225 4.0 5.0 0.00 0.00 0.00 46 1008.5
20260831201507 82 117 4.0 8.0 0.00 0.00 0.00 47 1008.7
20260831201007 82 153 5.0 8.0 0.00 0.00 0.00 47 1008.8
20260831200506 81 135 5.0 6.0 0.00 0.00 0.00 47 1008.8
20260831200007 81 162 3.0 5.0 0.00 0.00 0.00 48 1008.8
20260831195507 81 316 3.0 6.0 0.00 0.00 0.00 48 1009.1
20260831195007 80 290 4.0 6.0 0.00 0.00 0.00 50 1009.1
20260831194507 79 180 3.0 5.0 0.00 0.00 0.00 51 1009.1
20260831194007 79 90 5.0 6.0 0.00 0.00 0.00 50 1009.1
20260831193507 78 315 2.0 5.0 0.00 0.00 0.00 52 1009.1
20260831193007 77 288 1.0 3.0 0.00 0.00 0.00 53 1009.3
20260831192507 76 315 2.0 5.0 0.00 0.00 0.00 56 1009.5
20260831192007 75 315 1.0 3.0 0.00 0.00 0.00 58 1009.5
20260831191508 74 315 1.0 2.0 0.00 0.00 0.00 59 1009.7
20260831191006 74 288 1.0 5.0 0.00 0.00 0.00 60 1009.8
20260831190507 73 207 4.0 6.0 0.00 0.00 0.00 59 1009.8
20260831190007 73 54 1.0 6.0 0.00 0.00 0.00 61 1009.8
20260831185507 72 135 1.0 2.0 0.00 0.00 0.00 63 1009.8
20260831185008 72 244 3.0 6.0 0.00 0.00 0.00 64 1009.8
20260831184507 71 171 3.0 7.0 0.00 0.00 0.00 65 1010.1
20260831184007 71 189 1.0 4.0 0.00 0.00 0.00 66 1010.2
20260831183507 71 171 5.0 7.0 0.00 0.00 0.00 65 1010.2
20260831183007 71 306 3.0 6.0 0.00 0.00 0.00 67 1010.3
20260831182507 70 171 4.0 6.0 0.00 0.00 0.00 68 1010.2
20260831182007 70 117 5.0 7.0 0.00 0.00 0.00 71 1010.4
20260831181507 70 315 1.0 4.0 0.00 0.00 0.00 73 1010.5
20260831181007 69 126 1.0 1.0 0.00 0.00 0.00 75 1010.5
20260831180507 69 306 2.0 6.0 0.00 0.00 0.00 77 1010.5
20260831180007 68 216 3.0 4.0 0.00 0.00 0.00 78 1010.8
20260831175506 68 279 3.0 5.0 0.00 0.00 0.00 75 1010.8
20260831175007 68 261 3.0 5.0 0.00 0.00 0.00 76 1010.8
20260831174507 67 279 2.0 3.0 0.00 0.00 0.00 81 1010.8
20260831174007 67 162 1.0 3.0 0.00 0.00 0.00 83 1010.8
20260831173507 67 126 2.0 8.0 0.00 0.00 0.00 84 1010.8
20260831173007 66 315 3.0 8.0 0.00 0.00 0.00 85 1010.8
20260831172506 66 216 3.0 6.0 0.00 0.00 0.00 85 1010.8
20260831172007 66 90 2.0 5.0 0.00 0.00 0.00 85 1011.2
20260831171507 65 153 5.0 7.0 0.00 0.00 0.00 88 1011.2
20260831171007 65 163 3.0 6.0 0.00 0.00 0.00 90 1011.2
20260831170507 65 90 0.0 5.0 0.00 0.00 0.00 92 1011.2
20260831170007 64 90 3.0 5.0 0.00 0.00 0.00 92 1011.2
20260831165507 64 180 3.0 5.0 0.00 0.00 0.00 93 1011.2
20260831165007 63 180 3.0 5.0 0.00 0.00 0.00 93 1011.2
20260831164508 63 243 3.0 5.0 0.00 0.00 0.00 93 1011.2
20260831164007 63 144 4.0 7.0 0.00 0.00 0.00 93 1011.2
20260831163507 62 127 3.0 7.0 0.00 0.00 0.00 94 1011.2
20260831163006 62 173 2.0 5.0 0.00 0.00 0.00 95 1011.4
20260831162507 62 81 2.0 4.0 0.00 0.00 0.00 95 1011.5
20260831162007 61 297 3.0 6.0 0.00 0.00 0.00 95 1011.5
20260831161507 61 198 5.0 6.0 0.00 0.00 0.00 95 1011.5
20260831161007 61 162 4.0 7.0 0.00 0.00 0.00 96 1011.5
20260831160507 60 270 2.0 5.0 0.00 0.00 0.00 96 1011.5
20260831160006 60 0 1.0 2.0 0.00 0.00 0.00 97 1011.5
20260831155508 60 0 0.0 0.0 0.00 0.00 0.00 97 1011.5
20260831155006 59 0 0.0 0.0 0.00 0.00 0.00 98 1011.5
20260831154507 59 108 0.0 1.0 0.00 0.00 0.00 98 1011.5
20260831154007 59 365 0.0 0.0 0.00 0.00 0.00 98 1011.5
20260831153507 58 365 0.0 5.0 0.00 0.00 0.00 99 1011.7
20260831153008 58 262 1.0 5.0 0.00 0.00 0.00 99 1011.8
20260831152506 57 243 1.0 2.0 0.00 0.00 0.00 99 1011.9
20260831152007 57 270 1.0 4.0 0.00 0.00 0.00 99 1011.9
20260831151507 57 243 3.0 6.0 0.00 0.00 0.00 99 1011.9
20260831151007 56 315 0.0 1.0 0.00 0.00 0.00 99 1011.9
20260831150507 56 315 0.0 0.0 0.00 0.00 0.00 99 1011.9
20260831150007 55 243 3.0 5.0 0.00 0.00 0.00 99 1011.9
20260831145507 55 225 0.0 0.0 0.00 0.00 0.00 99 1011.9
20260831145007 54 207 1.0 3.0 0.00 0.00 0.00 99 1011.9
20260831144507 54 180 0.0 0.0 0.00 0.00 0.00 99 1011.9
20260831144007 54 180 0.0 0.0 0.00 0.00 0.00 99 1011.9
20260831143507 54 180 0.0 0.0 0.00 0.00 0.00 99 1011.9
20260831143006 53 180 0.0 0.0 0.00 0.00 0.00 99 1011.9
20260831142507 53 180 0.0 0.0 0.00 0.00 0.00 99 1011.9
20260831142007 53 180 0.0 0.0 0.00 0.00 0.00 99 1011.9
20260831141507 53 180 0.0 0.0 0.00 0.00 0.00 99 1011.9
20260831141007 53 180 0.0 0.0 0.00 0.00 0.00 99 1011.9
20260831140507 53 180 0.0 0.0 0.00 0.00 0.00 99 1011.9
20260831140007 53 180 0.0 0.0 0.00 0.00 0.00 99 1012.1
20260831135506 53 180 0.0 0.0 0.00 0.00 0.00 99 1012.0
20260831135007 53 180 0.0 0.0 0.00 0.00 0.00 99 1012.1
20260831134508 53 180 0.0 0.0 0.00 0.00 0.00 99 1012.1
20260831134007 53 180 0.0 0.0 0.00 0.00 0.00 99 1011.9
20260831133507 53 180 0.0 0.0 0.00 0.00 0.00 99 1011.9
20260831133007 53 180 0.0 0.0 0.00 0.00 0.00 99 1011.9
20260831132507 53 180 0.0 0.0 0.00 0.00 0.00 99 1012.2
20260831132007 53 180 0.0 0.0 0.00 0.00 0.00 99 1012.2
20260831131507 53 180 0.0 0.0 0.00 0.00 0.00 99 1012.2
20260831131008 53 180 0.0 0.0 0.00 0.00 0.00 99 1012.2
20260831130506 53 180 0.0 0.0 0.00 0.00 0.00 99 1012.2
20260831130007 54 180 0.0 0.0 0.00 0.00 0.00 99 1012.2
20260831125507 54 180 0.0 0.0 0.00 0.00 0.00 99 1012.2
20260831125007 54 180 0.0 0.0 0.00 0.00 0.00 99 1012.2
20260831124508 54 180 0.0 0.0 0.00 0.00 0.00 99 1012.2
20260831124007 54 180 0.0 0.0 0.00 0.00 0.00 99 1012.2
20260831123507 54 180 0.0 0.0 0.00 0.00 0.00 99 1012.2
20260831123007 54 180 0.0 0.0 0.00 0.00 0.00 99 1012.2
20260831122506 54 180 0.0 0.0 0.00 0.00 0.00 99 1012.2
20260831122007 54 180 0.0 0.0 0.00 0.00 0.00 99 1012.5
20260831121507 54 180 0.0 0.0 0.00 0.00 0.00 99 1012.5
20260831121007 54 180 0.0 0.0 0.00 0.00 0.00 99 1012.5
20260831120506 54 180 0.0 0.0 0.00 0.00 0.00 99 1012.5
20260831120007 54 180 0.0 0.0 0.00 0.00 0.00 99 1012.5
20260831115507 55 180 0.0 0.0 0.00 0.00 0.00 99 1012.5
20260831115007 55 180 0.0 0.0 0.00 0.00 0.00 99 1012.5
20260831114508 55 180 0.0 0.0 0.00 0.00 0.00 99 1012.5
20260831114007 55 180 0.0 0.0 0.00 0.00 0.00 99 1012.5
20260831113507 55 180 0.0 0.0 0.00 0.00 0.00 99 1012.5
20260831113007 55 180 0.0 0.0 0.00 0.00 0.00 99 1012.5
20260831112506 55 180 0.0 0.0 0.00 0.00 0.00 99 1012.5
20260831112007 56 180 0.0 0.0 0.00 0.00 0.00 99 1012.6
20260831111508 56 180 0.0 0.0 0.00 0.00 0.00 99 1012.9
20260831111007 56 180 0.0 0.0 0.00 0.00 0.00 99 1012.9
20260831110507 56 180 0.0 0.0 0.00 0.00 0.00 99 1012.9
20260831110007 56 180 0.0 0.0 0.00 0.00 0.00 99 1012.9
20260831105507 56 180 0.0 0.0 0.00 0.00 0.00 99 1012.9
20260831105007 56 180 0.0 0.0 0.00 0.00 0.00 99 1012.9
20260831104507 56 180 0.0 0.0 0.00 0.00 0.00 99 1012.9
20260831104007 56 180 0.0 0.0 0.00 0.00 0.00 99 1012.9
20260831103507 56 180 0.0 0.0 0.00 0.00 0.00 98 1012.9
20260831103007 56 180 0.0 0.0 0.00 0.00 0.00 98 1012.9
20260831102507 56 180 0.0 0.0 0.00 0.00 0.00 98 1012.9
20260831102007 56 180 0.0 0.0 0.00 0.00 0.00 98 1012.9
20260831101507 56 180 0.0 0.0 0.00 0.00 0.00 98 1012.9
20260831101007 57 180 0.0 0.0 0.00 0.00 0.00 98 1012.9
20260831100507 57 180 0.0 0.0 0.00 0.00 0.00 98 1013.2
20260831100007 57 180 0.0 0.0 0.00 0.00 0.00 98 1013.2
20260831095507 57 180 0.0 0.0 0.00 0.00 0.00 98 1013.2
20260831095007 57 180 0.0 0.0 0.00 0.00 0.00 98 1013.2
20260831094507 57 180 0.0 0.0 0.00 0.00 0.00 98 1013.2
20260831094007 57 180 0.0 0.0 0.00 0.00 0.00 98 1013.2
20260831093507 57 180 0.0 0.0 0.00 0.00 0.00 98 1013.6
20260831093007 57 180 0.0 0.0 0.00 0.00 0.00 98 1013.6
20260831092507 57 180 0.0 0.0 0.00 0.00 0.00 98 1013.6
20260831092007 57 180 0.0 0.0 0.00 0.00 0.00 98 1013.6
20260831091506 57 180 0.0 0.0 0.00 0.00 0.00 98 1013.6
20260831091007 57 180 0.0 0.0 0.00 0.00 0.00 98 1013.6
20260831090507 57 180 0.0 0.0 0.00 0.00 0.00 98 1013.6
20260831090007 57 180 0.0 0.0 0.00 0.00 0.00 98 1013.6
20260831085507 57 180 0.0 0.0 0.00 0.00 0.00 98 1013.6
20260831085007 58 180 0.0 0.0 0.00 0.00 0.00 97 1013.6
20260831084507 58 180 0.0 0.0 0.00 0.00 0.00 97 1013.9
20260831084007 58 180 0.0 0.0 0.00 0.00 0.00 97 1013.9
20260831083508 58 180 0.0 0.0 0.00 0.00 0.00 97 1013.9
20260831083007 58 180 0.0 0.0 0.00 0.00 0.00 97 1013.9
20260831082507 58 180 0.0 0.0 0.00 0.00 0.00 97 1013.9
20260831082007 58 180 0.0 0.0 0.00 0.00 0.00 97 1013.9
20260831081508 59 180 0.0 0.0 0.00 0.00 0.00 96 1013.9
20260831081006 59 180 0.0 0.0 0.00 0.00 0.00 96 1013.9
20260831080507 59 180 0.0 0.0 0.00 0.00 0.00 96 1014.1
20260831080007 59 180 0.0 0.0 0.00 0.00 0.00 96 1014.2
20260831075507 59 180 0.0 0.0 0.00 0.00 0.00 96 1014.2
20260831075006 60 180 0.0 0.0 0.00 0.00 0.00 96 1014.2
20260831074508 60 180 0.0 0.0 0.00 0.00 0.00 95 1014.2
20260831074007 60 180 0.0 0.0 0.00 0.00 0.00 95 1014.2
20260831073507 60 180 0.0 0.0 0.00 0.00 0.00 95 1014.2
20260831073006 60 180 0.0 0.0 0.00 0.00 0.00 95 1014.2
20260831072507 61 180 0.0 1.0 0.00 0.00 0.00 95 1014.2
20260831072007 61 180 0.0 1.0 0.00 0.00 0.00 95 1014.2
20260831071507 61 189 0.0 1.0 0.00 0.00 0.00 95 1014.2
20260831071007 61 225 0.0 0.0 0.00 0.00 0.00 94 1014.4
20260831070507 61 225 0.0 1.0 0.00 0.00 0.00 94 1014.6
20260831070007 61 225 0.0 1.0 0.00 0.00 0.00 94 1014.6
20260831065507 62 225 0.0 0.0 0.00 0.00 0.00 94 1014.6
20260831065007 62 225 0.0 0.0 0.00 0.00 0.00 94 1014.6
20260831064507 62 225 0.0 1.0 0.00 0.00 0.00 94 1014.6
20260831064007 62 225 1.0 4.0 0.00 0.00 0.00 94 1014.6
20260831063507 62 225 0.0 1.0 0.00 0.00 0.00 93 1014.6
20260831063007 63 225 0.0 0.0 0.00 0.00 0.00 93 1014.6
20260831062507 63 279 1.0 3.0 0.00 0.00 0.00 93 1014.6
20260831062007 63 225 2.0 3.0 0.00 0.00 0.00 93 1014.8
20260831061507 63 243 1.0 3.0 0.00 0.00 0.00 93 1014.9
20260831061007 63 252 2.0 5.0 0.00 0.00 0.00 93 1014.9
20260831060507 63 0 1.0 3.0 0.00 0.00 0.00 93 1014.9
20260831060007 63 0 0.0 1.0 0.00 0.00 0.00 92 1014.9
20260831055507 63 99 3.0 5.0 0.00 0.00 0.00 92 1014.9
20260831055007 64 225 2.0 5.0 0.00 0.00 0.00 92 1015.0
20260831054507 64 90 1.0 2.0 0.00 0.00 0.00 92 1015.0
20260831054007 64 180 2.0 5.0 0.00 0.00 0.00 92 1015.2
20260831053507 64 180 3.0 5.0 0.00 0.00 0.00 92 1015.2
20260831053007 64 243 3.0 6.0 0.00 0.00 0.00 92 1015.2
20260831052507 64 228 2.0 4.0 0.00 0.00 0.00 92 1015.2
20260831052007 64 261 2.0 5.0 0.00 0.00 0.00 92 1015.2
20260831051507 64 271 2.0 5.0 0.00 0.00 0.00 91 1015.2
20260831051007 64 225 2.0 4.0 0.00 0.00 0.00 91 1015.2
20260831050506 64 126 4.0 6.0 0.00 0.00 0.00 91 1015.5
20260831050007 64 207 4.0 6.0 0.00 0.00 0.00 90 1015.6
20260831045507 64 207 1.0 5.0 0.00 0.00 0.00 89 1015.6
20260831045007 64 304 0.0 1.0 0.00 0.00 0.00 89 1015.6
20260831044508 65 254 1.0 3.0 0.00 0.00 0.00 88 1015.6
20260831044007 65 225 2.0 4.0 0.00 0.00 0.00 87 1015.6
20260831043507 65 216 3.0 5.0 0.00 0.00 0.00 87 1015.6
20260831043007 65 164 2.0 6.0 0.00 0.00 0.00 86 1015.6
20260831042507 65 207 3.0 5.0 0.00 0.00 0.00 86 1015.6
20260831042007 65 315 2.0 5.0 0.00 0.00 0.00 85 1015.6
20260831041507 65 225 1.0 4.0 0.00 0.00 0.00 84 1015.6
20260831041006 65 270 0.0 0.0 0.00 0.00 0.00 83 1015.6
20260831040508 65 306 1.0 3.0 0.00 0.00 0.00 82 1015.6
20260831040007 66 270 1.0 3.0 0.00 0.00 0.00 81 1015.6
20260831035507 66 81 2.0 6.0 0.00 0.00 0.00 81 1015.6
20260831035007 66 189 2.0 4.0 0.00 0.00 0.00 80 1015.6
20260831034507 66 216 2.0 4.0 0.00 0.00 0.00 79 1015.6
20260831034007 66 180 1.0 2.0 0.00 0.00 0.00 78 1015.6
20260831033507 66 180 1.0 5.0 0.00 0.00 0.00 77 1015.6
20260831033007 66 243 2.0 5.0 0.00 0.00 0.00 75 1015.6
20260831032506 67 54 2.0 5.0 0.00 0.00 0.00 74 1015.6
20260831032008 67 234 3.0 5.0 0.00 0.00 0.00 73 1015.6
20260831031507 67 90 2.0 7.0 0.00 0.00 0.00 72 1015.8
20260831031007 67 162 1.0 2.0 0.00 0.00 0.00 71 1015.9
20260831030506 67 153 2.0 5.0 0.00 0.00 0.00 70 1015.9
20260831030007 67 207 2.0 3.0 0.00 0.00 0.00 69 1015.9
20260831025507 68 225 5.0 8.0 0.00 0.00 0.00 69 1015.9
20260831025007 68 171 1.0 2.0 0.00 0.00 0.00 67 1015.6
20260831024507 68 108 3.0 5.0 0.00 0.00 0.00 67 1015.9
20260831024007 68 261 2.0 5.0 0.00 0.00 0.00 67 1015.9
20260831023506 69 63 2.0 5.0 0.00 0.00 0.00 66 1015.9
20260831023007 69 207 2.0 5.0 0.00 0.00 0.00 65 1015.9
20260831022507 69 252 2.0 5.0 0.00 0.00 0.00 63 1015.9